Content
SEND FEEDBACK

Daily
Averages
Monthly
Summary
United States of America

NEWFANE, VERMONT


Home > North America > United States > Vermont
Elevation: 686 feet     Latitude: 42 59N     Longitude: 072 39W

WEATHER
 
SELECT A DAY
Number of Records: 457,229;   Date Range: 1/1/95 - 12/26/14
 
SHARE

PRINT THIS DATA

[ ← Previous Day ]
WEATHER ALMANAC - MAY 4, 2014
[ Next Day → ]
[ °C ]   °F
Weather ElementAverageHighLow
Temperature48.8 °F53.6 °F (10:55 am)42.8 °F (5:55 am)
Dewpoint35.6 °F42.8 °F (3:15 am)30.2 °F (9:35 am)
Humidity61.4 %82 % (3:15 am)44 % (9:35 am)
Barometer29.62 in29.70 in (12:35 am)29.57 in (2:15 pm)
Wind Speed7.7 mph21.9 mph (2:55 pm)
Wind Gust33.4 mph (2:55 pm)
Weather ElementAverage
Visibility9.6 mi
Wind DirectionSW (223.1 °)

Weather ElementTotal
Precipitation0.03 in
Heating Degree Days16.8 (Base 65)
Averaged from 71 records on May 4, 2014
WEATHER CONDITIONS BREAKOUT
WIND DIRECTION BREAKOUT
WEATHER BY HOUR - MAY 4, 2014
[ °C ]   °F
Local TimeTemperatureDewpointHumidityBarometerVisibilityWind DirectionWind SpeedGust SpeedPrecipitationEventsConditions
12:35 AM46.4 °F39.2 °F76 %29.70 in10.0 miCalmPartly Cloudy
12:55 AM44.6 °F37.4 °F76 %29.68 in10.0 miCalmPartly Cloudy
1:15 AM44.6 °F37.4 °F76 %29.68 in10.0 miCalmClear
1:35 AM44.6 °F37.4 °F76 %29.67 in6.0 miCalmClear
1:55 AM44.6 °F37.4 °F76 %29.67 in10.0 miCalmScattered Clouds
2:15 AM44.6 °F39.2 °F81 %29.67 in9.0 miCalmPartly Cloudy
2:35 AM46.4 °F39.2 °F76 %29.67 in9.0 miCalmMostly Cloudy
2:55 AM50.0 °F41.0 °F71 %29.67 in10.0 miSW (220°)5.8 mphOvercast
3:15 AM48.2 °F42.8 °F82 %29.67 in10.0 miCalm0.01 inOvercast
3:35 AM48.2 °F42.8 °F82 %29.66 in10.0 miCalm0.01 inOvercast
3:55 AM48.2 °F41.0 °F76 %29.66 in10.0 miSouth (170°)3.5 mph0.01 inMostly Cloudy
4:15 AM46.4 °F39.2 °F76 %29.65 in10.0 miSSW (210°)3.5 mphScattered Clouds
4:35 AM44.6 °F39.2 °F81 %29.66 in7.0 miSSW (210°)5.8 mphScattered Clouds
4:55 AM46.4 °F39.2 °F76 %29.65 in10.0 miCalmMostly Cloudy
5:15 AM44.6 °F39.2 °F81 %29.65 in8.0 miSSW (200°)3.5 mphMostly Cloudy
5:35 AM44.6 °F39.2 °F81 %29.65 in9.0 miCalmPartly Cloudy
5:55 AM42.8 °F37.4 °F81 %29.65 in0.5 miSSW (200°)3.5 mphMostly Cloudy
6:15 AM44.6 °F37.4 °F76 %29.65 in7.0 miSouth (190°)4.6 mphScattered Clouds
6:35 AM42.8 °F37.4 °F81 %29.65 in5.0 miSSW (210°)4.6 mphClear
6:55 AM46.4 °F39.2 °F76 %29.65 in10.0 miSW (230°)4.6 mphScattered Clouds
7:15 AM48.2 °F39.2 °F71 %29.64 in10.0 miSSW (210°)6.9 mphScattered Clouds
7:35 AM50.0 °F39.2 °F66 %29.63 in10.0 miSW (230°)8.1 mphClear
7:55 AM51.8 °F37.4 °F58 %29.63 in10.0 miSSW (210°)9.2 mphClear
8:15 AM51.8 °F35.6 °F54 %29.63 in10.0 miSW (230°)11.5 mph17.3 mphMostly Cloudy
8:35 AM51.8 °F35.6 °F54 %29.62 in10.0 miWSW (250°)6.9 mphOvercast
8:55 AM51.8 °F35.6 °F54 %29.61 in10.0 miWSW (250°)5.8 mphOvercast
9:15 AM51.8 °F33.8 °F50 %29.61 in10.0 miWest (270°)12.7 mph16.1 mphOvercast
9:35 AM51.8 °F30.2 °F44 %29.61 in10.0 miWest (260°)13.8 mph18.4 mphOvercast
9:55 AM51.8 °F32.0 °F47 %29.60 in10.0 miWSW (250°)10.4 mph16.1 mphOvercast
10:15 AM51.8 °F32.0 °F47 %29.60 in10.0 miWSW (250°)8.1 mphOvercast
10:35 AM51.8 °F33.8 °F50 %29.59 in10.0 miSW (230°)15.0 mph19.6 mphOvercast
10:55 AM53.6 °F33.8 °F47 %29.59 in10.0 miWest (260°)16.1 mph23.0 mphOvercast
11:15 AM51.8 °F33.8 °F50 %29.59 in10.0 miWest (280°)12.7 mph19.6 mphOvercast
11:35 AM51.8 °F33.8 °F50 %29.59 in10.0 miSW (230°)9.2 mph17.3 mphOvercast
11:55 AM51.8 °F33.8 °F50 %29.60 in8.0 miWest (260°)16.1 mph25.3 mphOvercast
12:15 PM48.2 °F35.6 °F62 %29.59 in10.0 miWest (260°)9.2 mph23.0 mphMostly Cloudy
12:35 PM50.0 °F33.8 °F54 %29.59 in10.0 miWSW (250°)10.4 mph20.7 mphOvercast
12:55 PM51.8 °F33.8 °F50 %29.59 in10.0 miWNW (290°)10.4 mph17.3 mphOvercast
1:15 PM51.8 °F33.8 °F50 %29.59 in10.0 miWest (260°)12.7 mph19.6 mphOvercast
1:35 PM51.8 °F35.6 °F54 %29.58 in10.0 miWSW (240°)12.7 mph23.0 mphOvercast
1:55 PM51.8 °F33.8 °F50 %29.58 in10.0 miWSW (250°)13.8 mph24.2 mphOvercast
2:15 PM51.8 °F33.8 °F50 %29.57 in10.0 miWest (270°)6.9 mph19.6 mphOvercast
2:35 PM53.6 °F33.8 °F47 %29.57 in10.0 miWest (270°)13.8 mph23.0 mphMostly Cloudy
2:55 PM51.8 °F33.8 °F50 %29.58 in10.0 miWNW (300°)21.9 mph33.4 mphMostly Cloudy
3:15 PM51.8 °F33.8 °F50 %29.59 in10.0 miWNW (290°)15.0 mph31.1 mphScattered Clouds
3:35 PM51.8 °F33.8 °F50 %29.60 in10.0 miWest (270°)13.8 mph25.3 mphMostly Cloudy
3:55 PM50.0 °F33.8 °F54 %29.59 in10.0 miWest (280°)12.7 mph25.3 mphMostly Cloudy
4:15 PM51.8 °F33.8 °F50 %29.59 in10.0 miWSW (240°)5.8 mph21.9 mphMostly Cloudy
4:35 PM51.8 °F33.8 °F50 %29.59 in10.0 miWSW (250°)5.8 mphMostly Cloudy
4:55 PM51.8 °F33.8 °F50 %29.59 in10.0 miWest (270°)10.4 mph18.4 mphOvercast
5:15 PM50.0 °F33.8 °F54 %29.59 in10.0 miWSW (250°)8.1 mphOvercast
5:35 PM50.0 °F32.0 °F50 %29.59 in10.0 miWest (270°)15.0 mph24.2 mphOvercast
5:55 PM50.0 °F33.8 °F54 %29.60 in10.0 miWNW (290°)8.1 mphOvercast
6:15 PM50.0 °F33.8 °F54 %29.60 in10.0 miWNW (290°)10.4 mphOvercast
6:35 PM50.0 °F33.8 °F54 %29.60 in10.0 miWest (270°)8.1 mph18.4 mphOvercast
6:55 PM50.0 °F33.8 °F54 %29.60 in10.0 miWNW (290°)10.4 mph18.4 mphOvercast
7:15 PM48.2 °F33.8 °F58 %29.61 in10.0 miWest (280°)10.4 mph18.4 mphOvercast
7:35 PM48.2 °F33.8 °F58 %29.61 in10.0 miWest (280°)6.9 mphOvercast
7:55 PM48.2 °F33.8 °F58 %29.61 in10.0 miWNW (290°)5.8 mphOvercast
8:15 PM48.2 °F33.8 °F58 %29.62 in10.0 miNW (310°)8.1 mphMostly Cloudy
8:35 PM48.2 °F33.8 °F58 %29.62 in10.0 miWNW (300°)9.2 mphMostly Cloudy
8:55 PM48.2 °F33.8 °F58 %29.63 in10.0 miWNW (300°)5.8 mphOvercast
9:15 PM48.2 °F33.8 °F58 %29.63 in10.0 miNW (320°)8.1 mphOvercast
9:35 PM46.4 °F33.8 °F62 %29.64 in10.0 miWNW (300°)3.5 mphOvercast
9:55 PM46.4 °F35.6 °F66 %29.64 in10.0 miWNW (300°)5.8 mphOvercast
10:15 PM46.4 °F33.8 °F62 %29.65 in10.0 miNorth (350°)9.2 mphOvercast
10:35 PM46.4 °F33.8 °F62 %29.65 in10.0 miNNW (330°)5.8 mphOvercast
10:55 PM46.4 °F33.8 °F62 %29.66 in10.0 miNNW (330°)6.9 mphOvercast
11:15 PM46.4 °F35.6 °F66 %29.66 in10.0 miNNW (340°)10.4 mphOvercast
11:35 PM46.4 °F35.6 °F66 %29.67 in10.0 miNW (320°)6.9 mphOvercast
11:55 PM46.4 °F35.6 °F66 %29.67 in10.0 miNNW (330°)6.9 mphOvercast
Hourly data recorded from KEEN, located miles away from Newfane, Vermont







STORIES FROM OUR PARTNERS